Weather History for Flora, IL

Change the Weather History Date:

Thursday, March 13, 2014

  Actual Average (KEVV) Record (KEVV)
Temperature  
Mean Temperature 36 °F 45 °F  
Max Temperature 50 °F 56 °F 82 °F (1967)
Min Temperature 21 °F 35 °F 3 °F (1960)
Degree Days  
Heating Degree Days 30 20  
Month to date heating degree days 286  
Since 1 July heating degree days 3860  
Cooling Degree Days 0 0  
Month to date cooling degree days 0  
Year to date cooling degree days 0  
Moisture  
Dew Point 28 °F    
Average Humidity 78    
Maximum Humidity 100    
Minimum Humidity 50    
Precipitation  
Precipitation 0.00 in 0.14 in 1.73 in (1907)
Month to date precipitation 1.63  
Year to date precipitation 7.90  
Snow  
Snow 0.00 in 0.00 in 4.20 in (1958)
Month to date snowfall 0.6  
Since 1 July snowfall 11.3  
Snow Depth -    
Sea Level Pressure  
Sea Level Pressure 30.13 in    
Wind  
Wind Speed 5 mph (South)    
Max Wind Speed 17 mph    
Max Gust Speed 21 mph    
Visibility 8 miles    
Events      
T = Trace of Precipitation, MM = Missing Value Source: NWS Daily Summary

Daily Weather History Graph

Daily Weather History Graph

Search for Another Location

Airport:

Trip Planner

Search our weather history database for the weather conditions in past years. The results will help you decide how hot, cold, wet, or windy it might be!

Date:

Astronomy

Mar. 13, 2014 Rise Set
Actual Time 7:08 AM CDT 6:58 PM CDT
Civil Twilight 6:41 AM CDT 7:25 PM CDT
Nautical Twilight 6:10 AM CDT 7:56 PM CDT
Astronomical Twilight 5:39 AM CDT 8:27 PM CDT
Moon 4:25 PM CDT (3/13) 5:13 AM CDT (3/13)
Length of Visible Light 12h 43m
Length of Day
11h 50m
Waxing Gibbous, 91% of the Moon is Illuminated
Mar 13
Waxing Gibbous
Mar 16
Full
Mar 23
Last Quarter
Mar 30
New
Apr 7
First Quarter

Hourly Weather History & Observations

Time (CDT) Temp. Windchill Dew Point Humidity Pressure Visibility Wind Dir Wind Speed Gust Speed Precip Events Conditions
12:17 AM 28.4 °F 23.3 °F 26.6 °F 93% 30.14 in 10.0 mi WNW 4.6 mph - N/A   Clear
12:37 AM 28.4 °F 24.6 °F 24.8 °F 86% 30.14 in 10.0 mi NW 3.5 mph - N/A   Clear
12:57 AM 28.4 °F 24.6 °F 24.8 °F 86% 30.13 in 10.0 mi NNW 3.5 mph - N/A   Clear
1:17 AM 26.6 °F - 24.8 °F 93% 30.13 in 10.0 mi Calm Calm - N/A   Clear
1:37 AM 26.6 °F - 24.8 °F 93% 30.13 in 10.0 mi Calm Calm - N/A   Clear
1:57 AM 26.6 °F - 24.8 °F 93% 30.14 in 10.0 mi Calm Calm - N/A   Clear
2:17 AM 26.6 °F 22.6 °F 24.8 °F 93% 30.14 in 10.0 mi West 3.5 mph - N/A   Clear
2:37 AM 26.6 °F 22.6 °F 24.8 °F 93% 30.15 in 7.0 mi West 3.5 mph - N/A   Clear
2:57 AM 26.6 °F 21.2 °F 24.8 °F 93% 30.14 in 10.0 mi NW 4.6 mph - N/A   Clear
3:17 AM 26.6 °F 22.6 °F 24.8 °F 93% 30.14 in 10.0 mi NW 3.5 mph - N/A   Clear
3:37 AM 24.8 °F 20.5 °F 23.0 °F 93% 30.14 in 7.0 mi WNW 3.5 mph - N/A   Clear
3:57 AM 26.6 °F - 24.8 °F 93% 30.14 in 7.0 mi Calm Calm - N/A   Clear
4:17 AM 24.8 °F - 23.0 °F 93% 30.14 in 7.0 mi Calm Calm - N/A   Clear
4:37 AM 24.8 °F - 23.0 °F 93% 30.15 in 5.0 mi Calm Calm - N/A   Clear
4:57 AM 24.8 °F - 24.8 °F 100% 30.15 in 3.0 mi Calm Calm - N/A   Clear
5:19 AM 24.8 °F - 24.8 °F 100% 30.16 in 3.0 mi Calm Calm - N/A   Clear
5:37 AM 23.0 °F - 23.0 °F 100% 30.17 in 2.5 mi Calm Calm - N/A   Clear
5:57 AM 23.0 °F - 23.0 °F 100% 30.18 in 2.5 mi Calm Calm - N/A   Clear
6:17 AM 23.0 °F - 21.2 °F 93% 30.19 in 3.0 mi Calm Calm - N/A   Clear
6:37 AM 21.2 °F - 21.2 °F 100% 30.19 in 3.0 mi Calm Calm - N/A   Clear
6:57 AM 21.2 °F - 21.2 °F 100% 30.19 in 3.0 mi Calm Calm - N/A   Clear
7:17 AM 21.2 °F 16.4 °F 21.2 °F 100% 30.20 in 2.5 mi East 3.5 mph - N/A   Clear
7:37 AM 21.2 °F - 21.2 °F 100% 30.20 in 2.5 mi Calm Calm - N/A   Clear
7:57 AM 24.8 °F 20.5 °F 24.8 °F 100% 30.21 in 3.0 mi SE 3.5 mph - N/A   Clear
8:17 AM 26.6 °F - 26.6 °F 100% 30.22 in 3.0 mi Calm Calm - N/A   Clear
8:37 AM 26.6 °F 22.6 °F 26.6 °F 100% 30.22 in 4.0 mi ESE 3.5 mph - N/A   Clear
8:57 AM 28.4 °F 23.3 °F 28.4 °F 100% 30.23 in 3.0 mi SSE 4.6 mph - N/A   Clear
9:17 AM 30.2 °F 24.3 °F 28.4 °F 93% 30.24 in 3.0 mi SE 5.8 mph - N/A   Clear
9:38 AM 30.2 °F 23.4 °F 28.4 °F 93% 30.24 in 5.0 mi South 6.9 mph - N/A   Clear
9:57 AM 32.0 °F 24.8 °F 28.4 °F 87% 30.24 in 10.0 mi South 8.1 mph - N/A   Clear
10:17 AM 33.8 °F 27.0 °F 28.4 °F 81% 30.23 in 10.0 mi South 8.1 mph - N/A   Clear
10:39 AM 33.8 °F 26.4 °F 26.6 °F 75% 30.23 in 10.0 mi SSE 9.2 mph - N/A   Clear
10:57 AM 35.6 °F 28.0 °F 26.6 °F 70% 30.23 in 10.0 mi South 10.4 mph 16.1 mph N/A   Clear
11:17 AM 35.6 °F 28.6 °F 26.6 °F 70% 30.23 in 10.0 mi South 9.2 mph - N/A   Clear
11:37 AM 37.4 °F 29.3 °F 28.4 °F 70% 30.22 in 10.0 mi South 12.7 mph - N/A   Clear
11:57 AM 37.4 °F 30.8 °F 26.6 °F 65% 30.21 in 10.0 mi South 9.2 mph - N/A   Clear
12:17 PM 39.2 °F 33.0 °F 26.6 °F 61% 30.21 in 10.0 mi SW 9.2 mph 16.1 mph N/A   Clear
12:37 PM 39.2 °F 33.0 °F 26.6 °F 61% 30.20 in 10.0 mi South 9.2 mph - N/A   Clear
12:57 PM 39.2 °F 34.2 °F 28.4 °F 65% 30.19 in 10.0 mi South 6.9 mph - N/A   Clear
1:19 PM 41.0 °F 33.9 °F 28.4 °F 61% 30.19 in 10.0 mi South 12.7 mph 16.1 mph N/A   Clear
1:37 PM 42.8 °F 37.0 °F 30.2 °F 61% 30.17 in 10.0 mi South 10.4 mph 17.3 mph N/A   Clear
1:57 PM 42.8 °F 36.6 °F 30.2 °F 61% 30.16 in 10.0 mi SSE 11.5 mph 17.3 mph N/A   Clear
2:17 PM 44.6 °F 38.1 °F 30.2 °F 57% 30.14 in 10.0 mi SSE 13.8 mph - N/A   Clear
2:39 PM 44.6 °F 37.4 °F 30.2 °F 57% 30.13 in 10.0 mi SSE 16.1 mph - N/A   Clear
2:57 PM 46.4 °F 41.1 °F 30.2 °F 53% 30.12 in 10.0 mi South 11.5 mph 18.4 mph N/A   Clear
3:17 PM 46.4 °F 40.4 °F 32.0 °F 57% 30.11 in 10.0 mi South 13.8 mph - N/A   Clear
3:37 PM 46.4 °F 39.8 °F 32.0 °F 57% 30.11 in 10.0 mi South 16.1 mph 20.7 mph N/A   Clear
3:57 PM 48.2 °F - 32.0 °F 54% 30.10 in 10.0 mi South 12.7 mph - N/A   Clear
4:37 PM 48.2 °F - 33.8 °F 58% 30.09 in 10.0 mi South 16.1 mph - N/A   Clear
4:57 PM 48.2 °F - 32.0 °F 54% 30.08 in 10.0 mi South 17.3 mph - N/A   Clear
5:17 PM 50.0 °F - 33.8 °F 54% 30.07 in 10.0 mi South 13.8 mph - N/A   Clear
5:37 PM 50.0 °F - 32.0 °F 50% 30.07 in 10.0 mi South 15.0 mph - N/A   Clear
5:57 PM 50.0 °F - 32.0 °F 50% 30.07 in 10.0 mi South 16.1 mph - N/A   Clear
6:17 PM 48.2 °F - 32.0 °F 54% 30.06 in 10.0 mi South 12.7 mph - N/A   Clear
6:37 PM 48.2 °F - 33.8 °F 58% 30.06 in 10.0 mi South 12.7 mph - N/A   Clear
6:57 PM 46.4 °F 41.5 °F 33.8 °F 62% 30.05 in 10.0 mi SSE 10.4 mph - N/A   Clear
7:17 PM 44.6 °F 39.7 °F 33.8 °F 66% 30.05 in 10.0 mi SSE 9.2 mph - N/A   Clear
7:37 PM 44.6 °F 40.2 °F 32.0 °F 61% 30.05 in 10.0 mi South 8.1 mph - N/A   Clear
7:57 PM 42.8 °F 37.5 °F 32.0 °F 66% 30.05 in 10.0 mi SSE 9.2 mph - N/A   Clear
8:17 PM 42.8 °F 38.0 °F 32.0 °F 66% 30.04 in 10.0 mi SSE 8.1 mph - N/A   Clear
8:37 PM 41.0 °F 35.8 °F 32.0 °F 70% 30.04 in 10.0 mi South 8.1 mph - N/A   Clear
8:57 PM 39.2 °F 33.6 °F 32.0 °F 75% 30.04 in 10.0 mi SSE 8.1 mph - N/A   Clear
9:17 PM 39.2 °F 33.6 °F 32.0 °F 75% 30.04 in 10.0 mi South 8.1 mph - N/A   Clear
9:37 PM 39.2 °F 33.6 °F 32.0 °F 75% 30.04 in 10.0 mi SSE 8.1 mph - N/A   Clear
9:59 PM 39.2 °F 33.6 °F 32.0 °F 75% 30.03 in 10.0 mi SSE 8.1 mph - N/A   Clear
10:17 PM 39.2 °F 33.6 °F 32.0 °F 75% 30.02 in 10.0 mi SSE 8.1 mph - N/A   Clear
10:37 PM 37.4 °F 30.8 °F 32.0 °F 81% 30.02 in 10.0 mi SSE 9.2 mph - N/A   Clear
10:59 PM 39.2 °F 33.0 °F 32.0 °F 75% 30.01 in 10.0 mi SSE 9.2 mph - N/A   Clear
11:17 PM 39.2 °F 33.0 °F 32.0 °F 75% 30.01 in 10.0 mi South 9.2 mph - N/A   Clear
11:37 PM 41.0 °F 34.7 °F 32.0 °F 70% 30.00 in 10.0 mi South 10.4 mph - N/A   Clear
11:57 PM 39.2 °F 33.0 °F 32.0 °F 75% 30.00 in 10.0 mi South 9.2 mph - N/A   Clear